FLOCK 2P-4 (41611 NORAD) Tracking and Keplerian Element Data

This shows tracking and keplerian element data for the satellite.

Feedback or suggestion? Click here.




ElementValue
Catalog41611
NameFLOCK 2P-4
Epoch Orbit9160
Epoch Day45.85733665
Epoch Year2018
RAAN111.7116
Inclination97.4318
Eccentricity0.0009312
Argument of Perigee318.7359
Mean Anonmoly41.3174
Mean Motion15.23950942
Decay Rate3.222E-05
L11 41611U 16040N 18045.85733665 .00003222 00000-0 13606-3 0 9993
L22 41611 97.4318 111.7116 0009312 318.7359 41.3174 15.23950942 91602

Live tracking and technical data element details for FLOCK 2P-4 (NORAD 41611). FLOCK 2P-4 can be tracked NOW for your location showing map with azimuth and elevation plus other details from your city location.

Track the satellite on the map from your city or location and see movement details for azimuth, elevation, latitude, longitude, range, height, and movement on the map or in text.







IsCatalogInMostPopularTable: catalog: 41611, numindb: 111
Update: records affected: 1



GetName: 41611 FLOCK 2P-4

Hit Count: updated at: Mon, 19 Nov 2018 13:07:24 GMT